SHIJIAN-23 (SJ-23) (55131 NORAD) Tracking and Keplerian Element Data

This shows tracking and keplerian element data for the satellite.

Feedback or suggestion? Click here.




ElementValue
Catalog55131
NameSHIJIAN-23 (SJ-23)
Epoch Orbit68
Epoch Day84.84914654
Epoch Year2023
RAAN93.8905
Inclination0.6745
Eccentricity0.00083
Argument of Perigee285.9822
Mean Anonmoly128.5066
Mean Motion1.00284793
Decay Rate1.15E-06
L11 55131U 23002A 23084.84914654 .00000115 00000+0 00000+0 0 9995
L22 55131 0.6745 93.8905 0008300 285.9822 128.5066 1.00284793 686



Live tracking and technical data element details for SHIJIAN-23 (SJ-23) (NORAD 55131). SHIJIAN-23 (SJ-23) can be tracked NOW for your location showing map with azimuth and elevation plus other details from your city location.







IsCatalogInMostPopularTable: catalog: 55131, numindb: 12
Update: records affected: 1



GetName: 55131 SHIJIAN-23 (SJ-23)

Hit Count: updated at: Mon, 27 Mar 2023 06:34:34 GMT